When you browse on this site, cookies collect data to enhance your experience and personalize the content and advertising you see.
Visit our Privacy Policy to learn more. By continuing to use the site, you agree to this use of cookies and data.
  • In Österreich
  • Länderverzeichnis
  • Für 7 Tage
  • Wassertemperatur
  • Wetterkarte
  • News
  • Widgets
  • user-avatar
    Anmelden

    Stündliche Wetter El Arenal

    Heute, 22 August, Donnerstag

    Zeit Temperatur Niederschläge Wind Luftdruck Luftfeuchtigkeit
    00:00 +14°C° 0.1 mm 1 m/S 590 mmHg 96%
    01:00 +14°C° 0.1 mm 1 m/S 589 mmHg 95%
    02:00 +13°C° 0.1 mm 0 m/S 589 mmHg 94%
    03:00 +13°C° 0 mm 0 m/S 589 mmHg 93%
    04:00 +13°C° 0 mm 0 m/S 589 mmHg 92%
    05:00 +13°C° 0 mm 0 m/S 589 mmHg 91%
    06:00 +15°C° 0 mm 0 m/S 590 mmHg 84%
    07:00 +16°C° 0 mm 0 m/S 591 mmHg 78%
    08:00 +18°C° 0 mm 0 m/S 592 mmHg 71%
    09:00 +21°C° 0.5 mm 1 m/S 592 mmHg 67%
    10:00 +22°C° 0.5 mm 1 m/S 592 mmHg 64%
    11:00 +23°C° 0.5 mm 1 m/S 592 mmHg 60%
    12:00 +23°C° 1.2 mm 2 m/S 592 mmHg 60%
    13:00 +24°C° 1.2 mm 3 m/S 591 mmHg 60%
    14:00 +24°C° 1.2 mm 3 m/S 591 mmHg 60%
    15:00 +22°C° 1.4 mm 3 m/S 591 mmHg 67%
    16:00 +20°C° 1.4 mm 2 m/S 590 mmHg 73%
    17:00 +19°C° 1.4 mm 2 m/S 589 mmHg 80%
    18:00 +20°C° 0.8 mm 1 m/S 590 mmHg 82%
    19:00 +19°C° 0.8 mm 1 m/S 590 mmHg 85%
    20:00 +18°C° 0.8 mm 1 m/S 590 mmHg 88%
    21:00 +18°C° 0.2 mm 1 m/S 590 mmHg 88%
    22:00 +16°C° 0.2 mm 1 m/S 590 mmHg 88%
    23:00 +16°C° 0.2 mm 1 m/S 590 mmHg 88%

    Morgen, 23 August, Freitag

    Zeit Temperatur Niederschläge Wind Luftdruck Luftfeuchtigkeit
    00:00 +16°C° 0 mm 1 m/S 589 mmHg 89%
    01:00 +14°C° 0 mm 0 m/S 589 mmHg 90%
    02:00 +14°C° 0 mm 0 m/S 589 mmHg 91%
    03:00 +13°C° 0 mm 0 m/S 589 mmHg 91%
    04:00 +13°C° 0 mm 0 m/S 589 mmHg 91%
    05:00 +14°C° 0 mm 1 m/S 588 mmHg 91%
    06:00 +16°C° 0 mm 1 m/S 590 mmHg 84%
    07:00 +18°C° 0 mm 1 m/S 591 mmHg 77%
    08:00 +20°C° 0 mm 1 m/S 592 mmHg 70%
    09:00 +22°C° 0 mm 1 m/S 592 mmHg 64%
    10:00 +23°C° 0 mm 2 m/S 592 mmHg 58%
    11:00 +25°C° 0 mm 2 m/S 593 mmHg 52%
    12:00 +25°C° 0.4 mm 3 m/S 592 mmHg 52%
    13:00 +25°C° 0.4 mm 3 m/S 592 mmHg 51%
    14:00 +25°C° 0.4 mm 3 m/S 592 mmHg 51%
    15:00 +24°C° 1.5 mm 3 m/S 591 mmHg 59%
    16:00 +21°C° 1.5 mm 3 m/S 590 mmHg 66%
    17:00 +20°C° 1.5 mm 3 m/S 589 mmHg 74%
    18:00 +19°C° 0.4 mm 3 m/S 590 mmHg 78%
    19:00 +18°C° 0.4 mm 2 m/S 590 mmHg 82%
    20:00 +16°C° 0.4 mm 2 m/S 590 mmHg 86%
    21:00 +16°C° 0 mm 1 m/S 590 mmHg 86%
    22:00 +16°C° 0 mm 1 m/S 590 mmHg 87%
    23:00 +16°C° 0 mm 1 m/S 590 mmHg 87%

    übermorgen, 24 August, Samstag

    Zeit Temperatur Niederschläge Wind Luftdruck Luftfeuchtigkeit
    00:00 +15°C° 0 mm 1 m/S 589 mmHg 86%
    01:00 +15°C° 0 mm 1 m/S 589 mmHg 85%
    02:00 +15°C° 0 mm 1 m/S 589 mmHg 85%
    03:00 +15°C° 0 mm 1 m/S 589 mmHg 84%
    04:00 +15°C° 0 mm 1 m/S 589 mmHg 84%
    05:00 +15°C° 0 mm 1 m/S 589 mmHg 84%
    06:00 +16°C° 0 mm 1 m/S 590 mmHg 78%
    07:00 +19°C° 0 mm 1 m/S 591 mmHg 72%
    08:00 +20°C° 0 mm 1 m/S 592 mmHg 66%
    09:00 +22°C° 0 mm 1 m/S 592 mmHg 61%
    10:00 +23°C° 0 mm 1 m/S 592 mmHg 57%
    11:00 +24°C° 0 mm 2 m/S 593 mmHg 53%
    12:00 +25°C° 0.3 mm 2 m/S 592 mmHg 52%
    13:00 +25°C° 0.3 mm 2 m/S 592 mmHg 51%
    14:00 +26°C° 0.3 mm 2 m/S 592 mmHg 50%
    15:00 +25°C° 1.7 mm 2 m/S 591 mmHg 57%
    16:00 +22°C° 1.7 mm 3 m/S 590 mmHg 64%
    17:00 +21°C° 1.7 mm 3 m/S 590 mmHg 72%
    18:00 +20°C° 1.5 mm 2 m/S 590 mmHg 76%
    19:00 +19°C° 1.5 mm 2 m/S 590 mmHg 81%
    20:00 +19°C° 1.5 mm 1 m/S 591 mmHg 85%
    21:00 +19°C° 0.4 mm 1 m/S 590 mmHg 86%
    22:00 +18°C° 0.4 mm 1 m/S 590 mmHg 86%
    23:00 +18°C° 0.4 mm 1 m/S 590 mmHg 86%

    25 August, Sonntag

    Zeit Temperatur Niederschläge Wind Luftdruck Luftfeuchtigkeit
    00:00 +18°C° 0 mm 1 m/S 590 mmHg 87%
    01:00 +16°C° 0 mm 1 m/S 589 mmHg 88%
    02:00 +15°C° 0 mm 0 m/S 589 mmHg 89%
    03:00 +15°C° 0 mm 0 m/S 589 mmHg 89%
    04:00 +14°C° 0 mm 0 m/S 588 mmHg 89%
    05:00 +14°C° 0 mm 0 m/S 588 mmHg 89%
    06:00 +16°C° 0 mm 0 m/S 589 mmHg 82%
    07:00 +17°C° 0 mm 0 m/S 590 mmHg 74%
    08:00 +21°C° 0 mm 1 m/S 591 mmHg 67%
    09:00 +23°C° 0 mm 1 m/S 592 mmHg 61%
    10:00 +24°C° 0 mm 1 m/S 592 mmHg 55%
    11:00 +26°C° 0 mm 1 m/S 592 mmHg 49%
    12:00 +26°C° 0.5 mm 1 m/S 592 mmHg 50%
    13:00 +26°C° 0.5 mm 2 m/S 591 mmHg 51%
    14:00 +26°C° 0.5 mm 2 m/S 591 mmHg 51%
    15:00 +25°C° 1.7 mm 2 m/S 590 mmHg 58%
    16:00 +24°C° 1.7 mm 2 m/S 590 mmHg 64%
    17:00 +23°C° 1.7 mm 2 m/S 589 mmHg 71%
    18:00 +21°C° 0.6 mm 2 m/S 589 mmHg 75%
    19:00 +19°C° 0.7 mm 2 m/S 590 mmHg 78%
    20:00 +19°C° 0.7 mm 1 m/S 590 mmHg 82%
    21:00 +19°C° 0.2 mm 1 m/S 589 mmHg 83%
    22:00 +18°C° 0.2 mm 1 m/S 589 mmHg 83%
    23:00 +18°C° 0.2 mm 1 m/S 589 mmHg 83%

    26 August, Montag

    Zeit Temperatur Niederschläge Wind Luftdruck Luftfeuchtigkeit
    00:00 +18°C° 0.2 mm 1 m/S 589 mmHg 84%
    01:00 +18°C° 0.2 mm 1 m/S 589 mmHg 84%
    02:00 +18°C° 0.2 mm 1 m/S 588 mmHg 84%
    03:00 +16°C° 0.2 mm 1 m/S 588 mmHg 86%
    04:00 +15°C° 0.2 mm 0 m/S 588 mmHg 87%
    05:00 +14°C° 0.2 mm 0 m/S 588 mmHg 89%
    06:00 +16°C° 0 mm 0 m/S 589 mmHg 82%
    07:00 +17°C° 0 mm 0 m/S 589 mmHg 75%
    08:00 +19°C° 0 mm 0 m/S 590 mmHg 69%
    09:00 +20°C° 0.2 mm 0 m/S 591 mmHg 63%
    10:00 +24°C° 0.2 mm 1 m/S 591 mmHg 58%
    11:00 +25°C° 0.2 mm 1 m/S 591 mmHg 52%
    12:00 +25°C° 0.9 mm 1 m/S 591 mmHg 54%
    13:00 +25°C° 0.9 mm 2 m/S 590 mmHg 55%
    14:00 +25°C° 0.9 mm 3 m/S 590 mmHg 56%
    15:00 +24°C° 1.3 mm 3 m/S 589 mmHg 63%
    16:00 +23°C° 1.3 mm 2 m/S 589 mmHg 69%
    17:00 +20°C° 1.3 mm 2 m/S 588 mmHg 76%
    18:00 +19°C° 1.5 mm 2 m/S 588 mmHg 78%
    19:00 +18°C° 1.5 mm 1 m/S 588 mmHg 81%
    20:00 +16°C° 1.5 mm 1 m/S 588 mmHg 83%
    21:00 +16°C° 0.1 mm 1 m/S 588 mmHg 83%
    22:00 +16°C° 0.1 mm 1 m/S 589 mmHg 82%
    23:00 +15°C° 0.1 mm 0 m/S 589 mmHg 82%

    27 August, Dienstag

    Zeit Temperatur Niederschläge Wind Luftdruck Luftfeuchtigkeit
    00:00 +15°C° 0 mm 0 m/S 589 mmHg 84%
    01:00 +14°C° 0 mm 0 m/S 588 mmHg 86%
    02:00 +14°C° 0 mm 0 m/S 587 mmHg 88%
    03:00 +14°C° 0 mm 0 m/S 588 mmHg 87%
    04:00 +14°C° 0 mm 0 m/S 588 mmHg 86%
    05:00 +14°C° 0 mm 1 m/S 588 mmHg 85%
    06:00 +16°C° 0 mm 1 m/S 589 mmHg 80%
    07:00 +16°C° 0 mm 0 m/S 589 mmHg 75%
    08:00 +18°C° 0 mm 0 m/S 590 mmHg 70%
    09:00 +21°C° 0.2 mm 1 m/S 591 mmHg 64%
    10:00 +23°C° 0.2 mm 1 m/S 591 mmHg 58%
    11:00 +24°C° 0.2 mm 2 m/S 591 mmHg 52%
    12:00 +24°C° 0.5 mm 3 m/S 591 mmHg 53%
    13:00 +25°C° 0.5 mm 3 m/S 591 mmHg 54%
    14:00 +25°C° 0.5 mm 4 m/S 590 mmHg 55%
    15:00 +23°C° 0.6 mm 4 m/S 590 mmHg 61%
    16:00 +21°C° 0.6 mm 4 m/S 590 mmHg 67%
    17:00 +20°C° 0.6 mm 3 m/S 589 mmHg 74%
    18:00 +19°C° 1 mm 3 m/S 589 mmHg 79%
    19:00 +18°C° 1 mm 2 m/S 589 mmHg 84%
    20:00 +18°C° 1 mm 1 m/S 590 mmHg 90%
    21:00 +18°C° 0.5 mm 1 m/S 590 mmHg 88%
    22:00 +16°C° 0.5 mm 1 m/S 590 mmHg 86%
    23:00 +16°C° 0.5 mm 1 m/S 590 mmHg 84%
    Mehr zeigen